THORAD DELTA 1 DEB, 8405

Orbit data source: Space-Track

THORAD DELTA 1 DEB, 8405 is space debris in LEO originally from a launch on Fri, 15 Nov 1974 UTC launched from the Air Force Western Test Range (AFWTR). Debris objects in space refer to the collection of defunct objects orbiting the Earth. Examples of debris include non-operational satellites, rocket bodies, and fragments generated from explosions, collisions, or faulty payload assembly.

Loading next visibility...
Identifier
8405, 1974-089CH
Orbit
LEO
Country
Flag of USUS
Related business
Manufacturer
Unknown
Mission
Spacecraft
Bus & Motor
Unknown
Mass
Unknown
Launch date (UTC)
1974-11-15 (51 years ago)
Launch vehicle
Unknown
Launch site
Air Force Western Test Range (AFWTR)
Object type
Payload
Rocket body
Debris
Shape & HBR
Unknown shape, 0.1 m
Radar Cross Section
Small (<0.1 m²)

Expand to show TLE details & history
Last TLE update: 1 day ago

TLE from 1 day ago
0 THORAD DELTA 1 DEB
1 08405U 74089CH  26072.23155709 -.00000469  00000-0 -70822-2 0  9996
2 08405 102.7281 346.7990 0696821 303.3916  50.2270 11.30583158120010
Epoch: 2026-03-13T05:33Z
TLE epoch observation values (Epoch: 2026-03-13T05:33:26.532Z)
Latitude
-0.00005°
Longitude
92.56841°
Altitude
1,661.684 km
Speed
7.187 km/s
True Right ascension
23h 07m 11s
True Declination
0° 00' 00"
Sunlit
Object was in daylight at epoch
Visualization orbit readout
Latitude
Unknown
Longitude
Unknown
Altitude
Unknown
Speed
Unknown
Apparent Right ascension
Unknown
Apparent Declination
Unknown
Sunlit
N/A
Visualization observer readout
Local Sidereal Time
10:30:45
Azimuth
Unknown
Elevation
Unknown
Doppler factor
Unknown
Orbital elements
Apogee altitude
2,589.364 km
Perigee altitude
1,421.028 km
Semi-major axis
8,383.333 km
Eccentricity
0.06968
Inclination
102.7281°
RAAN
346.799°
Arg. of periapsis
303.3916°
True anomaly
56.71142°
Mean anomaly
50.227°
Eccentric anomaly
53.43364°
Mean motion
2.8276 °/min
Orbital period
127.32 mins
BSTAR
-0.0070822
Loading maneuver chart data...
Computing Atmospheric mass density...

Documentation

Showing up to 5 results
|